Truckee-Tahoe, CA

1:46 PM PDT on June 22, 2017 (GMT -0700)
Truckee-Tahoe

Weather History for KTRK - June, 2013

Change the Weather History Date:

Friday, June 14, 2013

  Actual Average Record
Temperature  
Mean Temperature 48 °F -  
Max Temperature 69 °F 71 °F 98 °F (2007)
Min Temperature 28 °F 36 °F 25 °F (1952)
Degree Days  
Heating Degree Days 16    
Moisture  
Dew Point 26 °F    
Average Humidity 52    
Maximum Humidity 86    
Minimum Humidity 18    
Precipitation  
Precipitation 0.00 in - - ()
Sea Level Pressure  
Sea Level Pressure 30.16 in    
Wind  
Wind Speed 3 mph (SSE)    
Max Wind Speed 12 mph    
Max Gust Speed 16 mph    
Visibility 10 miles    
Events      
Averages and records for this station are not official NWS values.
T = Trace of Precipitation, MM = Missing Value Source: NWS Daily Summary

Daily Weather History Graph

Daily Weather History Graph

Search for Another Location

Airport or City:

Trip Planner

Search our weather history database for the weather conditions in past years. The results will help you decide how hot, cold, wet, or windy it might be!

Date:

Astronomy

Jun. 14, 2013 Rise Set
Actual Time 5:33 AM PDT 8:28 PM PDT
Civil Twilight 5:01 AM PDT 9:01 PM PDT
Nautical Twilight 4:20 AM PDT 9:41 PM PDT
Astronomical Twilight 3:33 AM PDT 10:28 PM PDT
Moon 11:11 AM PDT (6/14) No Moon Set
Length of Visible Light 16h 00m
Length of Day
14h 55m
Waxing Crescent, 31% of the Moon is Illuminated
Jun 14
Waxing Crescent
Jun 16
First Quarter
Jun 23
Full
Jun 29
Last Quarter
Jul 8
New

Hourly Weather History & Observations

Time (PDT) Temp. Windchill Dew Point Humidity Pressure Visibility Wind Dir Wind Speed Gust Speed Precip Events Conditions
12:15 AM 35.6 °F 32.8 °F 23.0 °F 60% 30.25 in 10.0 mi North 3.5 mph - N/A   Clear
12:35 AM 32.0 °F 26.4 °F 21.2 °F 64% 30.25 in 10.0 mi SSW 5.8 mph - N/A   Clear
12:55 AM 35.6 °F 32.8 °F 24.8 °F 65% 30.25 in 10.0 mi South 3.5 mph - N/A   Clear
1:15 AM 33.8 °F - 23.0 °F 65% 30.25 in 10.0 mi Calm Calm - N/A   Clear
1:35 AM 30.2 °F 25.4 °F 23.0 °F 75% 30.24 in 10.0 mi South 4.6 mph - N/A   Clear
1:55 AM 33.8 °F 29.6 °F 24.8 °F 70% 30.23 in 10.0 mi SSE 4.6 mph - N/A   Clear
2:15 AM 32.0 °F 28.7 °F 24.8 °F 75% 30.23 in 10.0 mi South 3.5 mph - N/A   Clear
2:35 AM 32.0 °F - 26.6 °F 80% 30.23 in 10.0 mi Calm Calm - N/A   Clear
2:55 AM 32.0 °F - 26.6 °F 80% 30.23 in 10.0 mi Calm Calm - N/A   Clear
3:15 AM 32.0 °F - 24.8 °F 75% 30.23 in 10.0 mi Calm Calm - N/A   Clear
3:35 AM 32.0 °F - 24.8 °F 75% 30.23 in 10.0 mi Calm Calm - N/A   Clear
3:55 AM 32.0 °F - 24.8 °F 75% 30.23 in 10.0 mi Calm Calm - N/A   Clear
4:15 AM 28.4 °F - 23.0 °F 80% 30.23 in 10.0 mi Calm Calm - N/A   Clear
4:35 AM 28.4 °F - 24.8 °F 86% 30.23 in 10.0 mi Calm Calm - N/A   Clear
4:55 AM 30.2 °F - 24.8 °F 80% 30.23 in 10.0 mi Calm Calm - N/A   Clear
5:15 AM 32.0 °F - 24.8 °F 75% 30.22 in 10.0 mi Calm Calm - N/A   Clear
5:35 AM 28.4 °F - 24.8 °F 86% 30.22 in 10.0 mi Calm Calm - N/A   Clear
5:55 AM 28.4 °F - 24.8 °F 86% 30.23 in 10.0 mi Calm Calm - N/A   Clear
6:15 AM 30.2 °F - 24.8 °F 80% 30.23 in 10.0 mi Calm Calm - N/A   Clear
6:35 AM 28.4 °F - 24.8 °F 86% 30.23 in 10.0 mi Calm Calm - N/A   Clear
6:45 AM 32.0 °F - 24.8 °F 75% 30.22 in 10.0 mi Calm Calm - N/A   Clear
7:45 AM 37.4 °F - 26.6 °F 65% 30.22 in 10.0 mi Calm Calm - N/A   Clear
8:50 AM 46.4 °F 44.3 °F 26.6 °F 46% 30.22 in 10.0 mi NNW 4.6 mph - N/A   Clear
9:50 AM 51.8 °F - 28.4 °F 41% 30.20 in 10.0 mi North 5.8 mph - N/A   Clear
10:55 AM 59.0 °F - 26.6 °F 29% 30.17 in 10.0 mi WSW 5.8 mph - N/A   Clear
11:50 AM 60.8 °F - 26.6 °F 27% 30.16 in 10.0 mi South 11.5 mph - N/A   Clear
12:50 PM 64.4 °F - 26.6 °F 24% 30.15 in 10.0 mi South 10.4 mph 16.1 mph N/A   Mostly Cloudy
1:45 PM 66.2 °F - 21.2 °F 18% 30.14 in 10.0 mi South 9.2 mph - N/A   Mostly Cloudy
2:50 PM 66.2 °F - 23.0 °F 19% 30.11 in 10.0 mi SW 6.9 mph - N/A   Mostly Cloudy
3:50 PM 68.0 °F - 26.6 °F 21% 30.10 in 10.0 mi North 8.1 mph - N/A   Mostly Cloudy
5:45 PM 69.8 °F - 26.6 °F 20% 30.06 in 10.0 mi North 10.4 mph - N/A   Partly Cloudy
5:55 PM 68.0 °F - 23.0 °F 18% 30.08 in 10.0 mi Calm Calm - N/A   Partly Cloudy
6:15 PM 68.0 °F - 26.6 °F 21% 30.07 in 10.0 mi NNE 6.9 mph - N/A   Clear
6:35 PM 66.2 °F - 26.6 °F 23% 30.07 in 10.0 mi NE 6.9 mph - N/A   Clear
6:55 PM 66.2 °F - 26.6 °F 23% 30.08 in 10.0 mi SE 3.5 mph - N/A   Clear
7:15 PM 66.2 °F - 26.6 °F 23% 30.07 in 10.0 mi SE 6.9 mph - N/A   Clear
7:35 PM 64.4 °F - 26.6 °F 24% 30.08 in 10.0 mi SE 6.9 mph - N/A   Clear
7:55 PM 62.6 °F - 28.4 °F 27% 30.08 in 10.0 mi ESE 3.5 mph - N/A   Clear
8:15 PM 62.6 °F - 28.4 °F 27% 30.08 in 10.0 mi Calm Calm - N/A   Clear
8:35 PM 60.8 °F - 26.6 °F 27% 30.08 in 10.0 mi SE 3.5 mph - N/A   Clear
8:55 PM 53.6 °F - 32.0 °F 44% 30.09 in 10.0 mi Calm Calm - N/A   Unknown
9:15 PM 57.2 °F - 30.2 °F 36% 30.09 in 10.0 mi ESE 4.6 mph - N/A   Clear
9:35 PM 50.0 °F - 30.2 °F 47% 30.10 in 10.0 mi Calm Calm - N/A   Clear
9:55 PM 50.0 °F - 30.2 °F 47% 30.10 in 10.0 mi SE 3.5 mph - N/A   Clear
10:15 PM 46.4 °F - 28.4 °F 50% 30.11 in 10.0 mi Calm Calm - N/A   Clear
10:35 PM 48.2 °F - 28.4 °F 46% 30.11 in 10.0 mi ESE 4.6 mph - N/A   Clear
10:55 PM 44.6 °F 43.1 °F 26.6 °F 49% 30.11 in 10.0 mi SSE 3.5 mph - N/A   Clear
11:15 PM 44.6 °F 43.1 °F 30.2 °F 57% 30.11 in 10.0 mi SW 3.5 mph - N/A   Clear
11:35 PM 44.6 °F - 32.0 °F 61% 30.10 in 10.0 mi Calm Calm - N/A   Clear
11:55 PM 44.6 °F - 32.0 °F 61% 30.10 in 10.0 mi Calm Calm - N/A   Clear